When you browse on this site, cookies collect data to enhance your experience and personalize the content and advertising you see.
Visit our Privacy Policy to learn more. By continuing to use the site, you agree to this use of cookies and data.
  • In France
  • List of Countries
  • For 7 days
  • Water Temperature
  • Satellite Maps
  • Weather Map
  • Weather Widgets
  • user-avatar
    Login

    Hourly Weather Tarin Kowt

    Today, 16 January, Wednesday

    Time Temperature Precipitation Wind Pressure Humidity
    00:00 +9°C° 0 mm 1 mps 617 mmHg 30%
    01:00 +8°C° 0 mm 0 mps 616 mmHg 32%
    02:00 +7°C° 0 mm 0 mps 616 mmHg 33%
    03:00 +8°C° 0 mm 1 mps 616 mmHg 34%
    04:00 +7°C° 0 mm 1 mps 616 mmHg 37%
    05:00 +7°C° 0 mm 1 mps 616 mmHg 39%
    06:00 +7°C° 0 mm 1 mps 616 mmHg 40%
    07:00 +5°C° 0 mm 0 mps 616 mmHg 42%
    08:00 +7°C° 0 mm 0 mps 617 mmHg 37%
    09:00 +9°C° 0 mm 0 mps 618 mmHg 32%
    10:00 +11°C° 0 mm 0 mps 619 mmHg 25%
    11:00 +13°C° 0 mm 1 mps 619 mmHg 25%
    12:00 +13°C° 0 mm 1 mps 619 mmHg 24%
    13:00 +14°C° 0 mm 1 mps 619 mmHg 23%
    14:00 +14°C° 0 mm 1 mps 619 mmHg 23%
    15:00 +14°C° 0 mm 1 mps 618 mmHg 24%
    16:00 +13°C° 0 mm 1 mps 618 mmHg 24%
    17:00 +12°C° 0 mm 1 mps 618 mmHg 29%
    18:00 +11°C° 0 mm 1 mps 618 mmHg 33%
    19:00 +9°C° 0 mm 1 mps 618 mmHg 37%
    20:00 +9°C° 0 mm 1 mps 618 mmHg 38%
    21:00 +8°C° 0 mm 1 mps 618 mmHg 38%
    22:00 +8°C° 0 mm 1 mps 618 mmHg 38%
    23:00 +7°C° 0 mm 1 mps 617 mmHg 38%

    Tomorrow, 17 January, Thursday

    Time Temperature Precipitation Wind Pressure Humidity
    00:00 +7°C° 0 mm 1 mps 617 mmHg 38%
    01:00 +7°C° 0 mm 1 mps 617 mmHg 37%
    02:00 +6°C° 0 mm 1 mps 617 mmHg 36%
    03:00 +6°C° 0 mm 1 mps 616 mmHg 35%
    04:00 +5°C° 0 mm 2 mps 616 mmHg 35%
    05:00 +5°C° 0 mm 2 mps 616 mmHg 34%
    06:00 +4°C° 0 mm 2 mps 616 mmHg 34%
    07:00 +4°C° 0 mm 2 mps 616 mmHg 34%
    08:00 +6°C° 0 mm 2 mps 617 mmHg 30%
    09:00 +8°C° 0 mm 2 mps 618 mmHg 26%
    10:00 +9°C° 0 mm 2 mps 619 mmHg 22%
    11:00 +10°C° 0 mm 2 mps 618 mmHg 21%
    12:00 +12°C° 0 mm 1 mps 618 mmHg 21%
    13:00 +12°C° 0 mm 1 mps 617 mmHg 21%
    14:00 +13°C° 0 mm 1 mps 617 mmHg 22%
    15:00 +13°C° 0 mm 1 mps 617 mmHg 23%
    16:00 +13°C° 0 mm 1 mps 617 mmHg 24%
    17:00 +12°C° 0 mm 1 mps 617 mmHg 27%
    18:00 +11°C° 0 mm 1 mps 617 mmHg 29%
    19:00 +10°C° 0 mm 1 mps 617 mmHg 32%
    20:00 +9°C° 0 mm 2 mps 617 mmHg 33%
    21:00 +9°C° 0 mm 2 mps 616 mmHg 34%
    22:00 +9°C° 0 mm 3 mps 616 mmHg 35%
    23:00 +9°C° 0.1 mm 3 mps 616 mmHg 38%

    Day after tomorrow, 18 January, Friday

    Time Temperature Precipitation Wind Pressure Humidity
    00:00 +9°C° 0.1 mm 3 mps 616 mmHg 41%
    01:00 +9°C° 0.1 mm 3 mps 616 mmHg 44%
    02:00 +8°C° 0.2 mm 3 mps 615 mmHg 48%
    03:00 +8°C° 0.2 mm 2 mps 615 mmHg 51%
    04:00 +7°C° 0.2 mm 2 mps 614 mmHg 55%
    05:00 +7°C° 0.5 mm 2 mps 614 mmHg 58%
    06:00 +7°C° 0.5 mm 2 mps 614 mmHg 62%
    07:00 +7°C° 0.5 mm 2 mps 614 mmHg 66%
    08:00 +8°C° 0.4 mm 3 mps 615 mmHg 66%
    09:00 +8°C° 0.4 mm 3 mps 615 mmHg 66%
    10:00 +9°C° 0.4 mm 3 mps 615 mmHg 66%
    11:00 +10°C° 0.5 mm 4 mps 615 mmHg 65%
    12:00 +10°C° 0.5 mm 4 mps 615 mmHg 65%
    13:00 +10°C° 0.5 mm 4 mps 615 mmHg 64%
    14:00 +11°C° 0.4 mm 4 mps 615 mmHg 62%
    15:00 +11°C° 0.4 mm 3 mps 615 mmHg 61%
    16:00 +11°C° 0.4 mm 3 mps 615 mmHg 59%
    17:00 +10°C° 0.4 mm 2 mps 615 mmHg 64%
    18:00 +10°C° 0.4 mm 1 mps 615 mmHg 70%
    19:00 +9°C° 0.4 mm 1 mps 615 mmHg 76%
    20:00 +8°C° 0.5 mm 1 mps 615 mmHg 77%
    21:00 +8°C° 0.5 mm 1 mps 614 mmHg 77%
    22:00 +7°C° 0.5 mm 2 mps 614 mmHg 78%
    23:00 +6°C° 0.6 mm 2 mps 614 mmHg 79%

    19 January, Saturday

    Time Temperature Precipitation Wind Pressure Humidity
    00:00 +6°C° 0.6 mm 2 mps 614 mmHg 80%
    01:00 +6°C° 0.6 mm 2 mps 614 mmHg 81%
    02:00 +6°C° 0.5 mm 2 mps 613 mmHg 83%
    03:00 +5°C° 0.5 mm 2 mps 613 mmHg 84%
    04:00 +5°C° 0.5 mm 2 mps 613 mmHg 85%
    05:00 +5°C° 0.3 mm 2 mps 613 mmHg 86%
    06:00 +5°C° 0.3 mm 2 mps 613 mmHg 87%
    07:00 +5°C° 0.3 mm 2 mps 614 mmHg 87%
    08:00 +6°C° 0.1 mm 2 mps 614 mmHg 83%
    09:00 +7°C° 0.1 mm 3 mps 614 mmHg 79%
    10:00 +8°C° 0.1 mm 3 mps 615 mmHg 74%
    11:00 +8°C° 0.2 mm 3 mps 614 mmHg 71%
    12:00 +9°C° 0.2 mm 3 mps 614 mmHg 67%
    13:00 +8°C° 0.2 mm 4 mps 614 mmHg 63%
    14:00 +8°C° 0.4 mm 4 mps 613 mmHg 65%
    15:00 +9°C° 0.4 mm 3 mps 613 mmHg 67%
    16:00 +9°C° 0.4 mm 3 mps 612 mmHg 69%
    17:00 +8°C° 1.4 mm 3 mps 612 mmHg 72%
    18:00 +8°C° 1.4 mm 2 mps 612 mmHg 75%
    19:00 +7°C° 1.4 mm 2 mps 612 mmHg 79%
    20:00 +7°C° 0.9 mm 2 mps 612 mmHg 80%
    21:00 +7°C° 0.9 mm 2 mps 612 mmHg 81%
    22:00 +5°C° 0.9 mm 3 mps 612 mmHg 82%
    23:00 +5°C° 0.5 mm 3 mps 612 mmHg 80%

    20 January, Sunday

    Time Temperature Precipitation Wind Pressure Humidity
    00:00 +5°C° 0.5 mm 3 mps 611 mmHg 78%
    01:00 +4°C° 0.5 mm 3 mps 611 mmHg 76%
    02:00 +4°C° 0.4 mm 3 mps 611 mmHg 78%
    03:00 +4°C° 0.4 mm 3 mps 611 mmHg 79%
    04:00 +3°C° 0.4 mm 3 mps 611 mmHg 81%
    05:00 +3°C° 0.3 mm 3 mps 611 mmHg 81%
    06:00 +3°C° 0.3 mm 3 mps 612 mmHg 81%
    07:00 +3°C° 0.3 mm 3 mps 612 mmHg 81%
    08:00 +4°C° 0.3 mm 3 mps 613 mmHg 71%
    09:00 +5°C° 0.3 mm 4 mps 613 mmHg 60%
    10:00 +5°C° 0.3 mm 5 mps 614 mmHg 50%
    11:00 +6°C° 0 mm 5 mps 614 mmHg 44%
    12:00 +6°C° 0 mm 5 mps 614 mmHg 38%
    13:00 +6°C° 0 mm 5 mps 613 mmHg 33%
    14:00 +5°C° 0 mm 4 mps 613 mmHg 32%
    15:00 +5°C° 0 mm 4 mps 613 mmHg 31%
    16:00 +4°C° 0 mm 4 mps 613 mmHg 30%
    17:00 +3°C° 0 mm 3 mps 613 mmHg 34%
    18:00 +4°C° 0 mm 2 mps 614 mmHg 38%
    19:00 +3°C° 0 mm 2 mps 614 mmHg 43%
    20:00 +3°C° 0 mm 1 mps 614 mmHg 46%
    21:00 +3°C° 0 mm 1 mps 615 mmHg 49%
    22:00 +3°C° 0 mm 1 mps 615 mmHg 52%
    23:00 +2°C° 0 mm 1 mps 615 mmHg 54%

    21 January, Monday

    Time Temperature Precipitation Wind Pressure Humidity
    00:00 +2°C° 0 mm 1 mps 615 mmHg 56%
    01:00 0°C° 0 mm 0 mps 614 mmHg 58%
    02:00 0°C° 0 mm 0 mps 614 mmHg 59%
    03:00 0°C° 0 mm 0 mps 614 mmHg 59%
    04:00 -1°C° 0 mm 0 mps 614 mmHg 59%
    05:00 -1°C° 0 mm 0 mps 615 mmHg 59%
    06:00 -1°C° 0 mm 0 mps 615 mmHg 58%
    07:00 -1°C° 0 mm 0 mps 615 mmHg 57%
    08:00 0°C° 0 mm 0 mps 615 mmHg 51%
    09:00 +2°C° 0 mm 1 mps 616 mmHg 45%
    10:00 +3°C° 0 mm 1 mps 616 mmHg 39%
    11:00 +3°C° 0 mm 1 mps 616 mmHg 37%
    12:00 +4°C° 0 mm 1 mps 615 mmHg 34%
    13:00 +4°C° 0 mm 1 mps 614 mmHg 32%
    14:00 +4°C° 0 mm 1 mps 614 mmHg 32%
    15:00 +4°C° 0 mm 1 mps 614 mmHg 32%
    16:00 +4°C° 0 mm 1 mps 614 mmHg 32%
    17:00 +4°C° 0 mm 1 mps 614 mmHg 36%
    18:00 +3°C° 0 mm 1 mps 615 mmHg 41%
    19:00 +3°C° 0 mm 1 mps 615 mmHg 45%
    20:00 +1°C° 0 mm 0 mps 615 mmHg 47%
    21:00 +1°C° 0 mm 0 mps 615 mmHg 49%
    22:00 +1°C° 0 mm 0 mps 615 mmHg 51%
    23:00 0°C° 0 mm 0 mps 615 mmHg 51%
    Show more